sat.trackr.live / text

‹ back to catalog

QIANFAN-31

NORAD 61564 · 2024-185N

PAYLOAD ACTIVE UNKNOWN

§ Identity

Operator
Country
PRC
Launch date
2024-10-15
Launch site
TAISC
Launch vehicle
Mass (kg)
RCS (m²)

External: N2YO · Heavens-Above · Gunter

§ Orbital elements

Epoch: 2026-05-25T04:22:18.015744Z

Period
106.04 min
Inclination
88.9815°
Eccentricity
0.0004894
Mean motion
13.58032292 rev/d
Perigee alt
1,039.2 km
Apogee alt
1,046.5 km
Semi-major
7,421.0 km
B*
1.9622e-4
RAAN
63.5350°
Arg perigee
279.1933°
Mean anomaly
80.8669°
Rev number
9,034

§ Raw data

QIANFAN-311 61564U 24185N   26145.18215296  .00000154  00000+0  19622-3 0  99962 61564  88.9815  63.5350 0004894 279.1933  80.8669 13.58032292 90342

JSON: /api/v1/satellites/61564 · /tle

For live sub-satellite position, see the globe view (requires WebGL).

§ Visibility from observer

Set your observer location to see the next 7 days of passes ≥ 10°. The values pass through the URL so the page stays shareable.

No JS? Fill the form by hand. The geolocation button needs JavaScript.